Regional Weather Roundup
Issued by NWS

Home | Current Version | Previous Version | Text Only | Print | Product List | Glossary Off
Versions: 1 2 3 4 5 6 7 8 9 10 11 12 13 14 15 16 17 18 19 20 21 22 23 24 25 26 27 28 29 30 31 32 33 34 35 36 37 38 39 40 41 42 43 44 45 46 47 48 49 50

176
ASUS43 KOAX 251702
RWRNE

WEATHER ROUNDUP FOR NEBRASKA
NATIONAL WEATHER SERVICE OMAHA NE
1200 PM CDT THU MAY 25 2017

NOTES: SATELLITE DATA IS BEING USED TO AUGMENT CLOUD COVER ABOVE
       12000 FEET.
       "FAIR" INDICATES FEW OR NO CLOUDS BELOW 12,000 FEET WITH NO
       SIGNIFICANT WEATHER AND/OR OBSTRUCTIONS TO VISIBILITY.

  * THESE STATIONS DO NOT REPORT WEATHER SUCH AS RAIN...SNOW OR FOG.

NEZ001>004-019>022-054>056-251800-
NEBRASKA PANHANDLE

CITY           SKY/WX    TMP DP  RH WIND       PRES   REMARKS
SCOTTSBLUFF    CLOUDY    68  44  42 W8        29.57S
ALLIANCE       MOSUNNY   65  45  48 N8        29.56R
CHADRON        CLOUDY    63  46  54 N3        29.56R
GORDON         FAIR      64  40  42 N8        29.56R
SIDNEY         MOSUNNY   70  49  47 NE17      29.56S
$$

NEZ057>060-069>072-079>082-251800-
SOUTHWEST NEBRASKA

CITY           SKY/WX    TMP DP  RH WIND       PRES   REMARKS
NORTH PLATTE   PTSUNNY   64  51  62 SE7G16    29.51R
IMPERIAL       SUNNY     74  53  48 N10       29.52R
LEXINGTON      MOSUNNY   65  51  61 S8        29.52S
MCCOOK         SUNNY     72  52  49 NE6       29.48F
$$

NEZ005>010-023>029-035>040-094-251800-
NORTH CENTRAL NEBRASKA

CITY           SKY/WX    TMP DP  RH WIND       PRES   REMARKS
VALENTINE      CLOUDY    65  47  52 NW10      29.51R
AINSWORTH      CLOUDY    64  50  61 SW3       29.49F
BROKEN BOW     PTSUNNY   63  50  62 SW9       29.53S
ORD            CLOUDY    59  45  59 SE15      29.48F
THEDFORD       CLOUDY    64  50  60 W3        29.54R
$$

NEZ041-046>049-061>064-073>077-083>087-251800-
SOUTH CENTRAL NEBRASKA

CITY           SKY/WX    TMP DP  RH WIND       PRES   REMARKS
GRAND ISLAND   SUNNY     69  50  50 S17G29    29.53F
AURORA         SUNNY     68  46  44 S22G30    29.55F
HASTINGS       SUNNY     66  48  52 S18G26    29.55F
HOLDREGE       SUNNY     66  47  50 S14G20    29.53S
KEARNEY *      SUNNY     68  48  49 S16G24    29.53F
YORK           SUNNY     70  45  40 S22       29.58F
$$

NEZ011>018-030>034-042>045-251800-
NORTHEAST NEBRASKA

CITY           SKY/WX    TMP DP  RH WIND       PRES   REMARKS
NORFOLK        SUNNY     70  45  40 S18G31    29.54F
ALBION         CLOUDY    68  46  44 S21       29.57R
BLAIR          SUNNY     69  49  50 S17G23    29.63S
FREMONT        SUNNY     69  47  45 SE18G24   29.61F
TEKAMAH        SUNNY     69  52  54 S22       29.61F
$$

NEZ050>053-065>068-078-088>093-251800-
SOUTHEAST NEBRASKA

CITY           SKY/WX    TMP DP  RH WIND       PRES   REMARKS
LINCOLN        SUNNY     72  48  42 S16       29.62R
OMAHA EPPLEY   MOSUNNY   70  47  43 S21       29.63F
BEATRICE       SUNNY     70  51  50 S15G21    29.61S
FALLS CITY     SUNNY     70  49  47 SE23      29.63F
NEBRASKA CITY  PTSUNNY   68  44  42 S15G21    29.64F
PLATTSMOUTH    SUNNY     70  49  48 SE14G23   29.64S
$$

NEZ044-045-051>053-067-251800-
OMAHA AREA

CITY           SKY/WX    TMP DP  RH WIND       PRES   REMARKS
OMAHA EPPLEY   MOSUNNY   70  47  43 S21       29.63F
BLAIR          SUNNY     69  49  50 S17G23    29.63S
FREMONT        SUNNY     69  47  45 SE18G24   29.61F
PLATTSMOUTH    SUNNY     70  49  48 SE14G23   29.64S
WAHOO          FAIR      69  46  42 S18G25    29.61F
$$




USA.gov is the U.S. government's official web portal to all federal, state and local government web resources and services.